Wind_Speed
44 45 46 47 46 46 46 46 46 44 43 40 39 37 35 34 33 31 30 30 30 30 30 32 31 32 31 31 30 29 28 26 25 24 24 24 24 25 25 25 24 22 22
43 45 46 47 48 48 47 47 48 48 47 45 42 41 39 38 36 35 34 33 32 31 30 31 31 31 32 32 32 31 30 29 28 27 26 25 25 25 26 26 26 25 24
42 43 45 46 46 47 47 47 47 47 48 46 45 44 42 40 39 38 37 37 36 34 33 32 31 31 31 32 33 32 31 31 30 29 28 27 26 25 25 26 27 27 26
40 41 42 43 43 44 44 43 44 44 45 44 44 44 43 42 42 41 40 40 39 36 35 34 32 32 31 30 30 32 31 32 32 31 30 29 28 27 25 26 27 27 27
36 36 37 37 37 38 39 40 40 41 42 42 43 43 43 42 42 42 42 42 41 39 37 35 33 29 27 27 28 31 32 31 31 31 30 30 29 28 28 27 27 27 27
30 29 28 28 28 29 30 32 34 35 37 38 39 40 41 41 41 42 42 41 40 38 37 35 33 30 28 27 26 26 28 30 30 30 30 31 30 30 30 29 28 28 29
21 20 19 19 20 20 21 24 26 29 30 32 34 35 36 37 38 38 38 38 37 36 34 33 32 30 28 27 27 28 27 28 28 29 30 31 31 31 32 32 32 31 31
15 14 12 11 12 12 14 17 20 22 24 25 27 29 31 32 33 34 34 34 34 34 33 33 32 32 32 31 30 30 28 29 29 29 30 31 32 32 33 34 34 33 33
12 9 8 7 7 8 10 10 13 16 18 20 22 24 26 27 28 29 30 31 32 32 33 33 34 35 35 35 33 32 31 31 31 31 32 33 32 32 33 34 34 34 33
12 10 8 8 8 7 6 6 6 9 12 14 15 17 19 21 23 25 27 29 30 31 32 34 34 35 36 36 35 34 34 34 34 34 34 35 34 34 34 34 34 34 34
14 13 12 11 10 9 9 8 7 6 6 7 8 10 12 15 17 19 22 23 25 27 29 31 31 33 33 34 34 34 34 33 33 34 34 35 34 33 33 33 33 34 34
17 17 15 15 13 13 12 12 11 10 9 7 5 4 5 7 9 11 13 15 17 19 21 22 24 26 27 28 29 30 31 31 31 31 32 33 32 31 31 31 31 31 31
20 19 19 18 16 15 14 14 13 13 13 12 11 9 6 5 4 4 5 7 9 11 12 14 16 17 19 20 22 24 25 26 26 27 28 28 28 27 27 27 27 27 27
21 21 21 21 21 20 19 17 17 16 15 14 13 12 11 9 7 6 5 5 5 6 7 8 10 11 12 14 16 18 18 19 21 22 22 22 22 22 21 21 20 20 19
22 22 22 23 22 22 21 20 20 19 18 16 16 15 13 12 11 10 8 7 7 7 7 8 8 9 9 10 11 12 14 15 16 16 16 16 16 15 16 15 15 15 14
23 23 22 22 22 22 22 21 21 20 19 18 17 16 15 14 13 12 11 9 8 8 8 8 9 9 11 12 12 12 12 12 13 13 14 14 13 13 14 13 13 12 12
22 22 21 21 21 21 21 21 21 21 21 20 19 18 17 16 15 13 12 11 11 10 10 10 10 10 11 13 13 14 15 14 14 14 14 14 14 14 14 13 13 13 13
21 21 21 21 21 21 21 21 21 22 21 21 21 21 20 19 18 17 15 14 13 12 12 13 12 12 12 13 13 14 14 15 16 16 16 16 15 15 15 14 13 13 14
20 20 20 20 20 21 21 21 22 22 22 22 22 22 22 21 21 20 18 17 17 16 15 14 13 12 12 12 13 13 14 15 15 16 16 16 16 16 16 16 15 14 14
18 19 19 19 19 20 20 20 21 22 22 22 23 23 23 23 23 23 21 20 20 19 18 17 15 14 13 12 11 11 12 13 13 14 15 15 16 16 16 16 15 14 13
18 18 18 18 18 19 20 20 20 21 21 22 23 24 24 24 24 24 23 23 22 22 21 20 18 16 14 12 11 9 8 9 11 12 13 13 14 15 15 15 14 13 13
17 18 18 18 18 18 19 20 20 20 20 21 22 23 23 24 24 24 25 25 24 24 24 23 22 20 17 15 12 9 6 5 7 9 11 12 13 13 13 13 13 13 13
15 16 17 17 17 18 19 20 20 20 20 20 21 22 23 23 23 24 24 25 25 25 25 25 24 23 21 18 15 11 7 3 3 6 8 11 12 13 13 13 12 12 12
13 14 15 16 16 17 18 19 20 20 20 20 21 21 22 23 23 23 24 24 25 26 26 26 26 25 24 22 18 15 11 7 3 4 7 9 11 12 13 12 12 12 11
12 13 13 14 15 16 16 17 18 19 20 20 21 21 21 22 23 23 23 24 25 25 26 27 27 27 26 25 22 19 16 14 11 9 9 10 11 12 12 12 12 11 11
11 11 11 12 13 14 14 15 17 18 19 20 20 21 21 21 22 22 23 24 24 24 25 26 27 27 27 27 26 24 22 19 17 15 14 13 13 13 13 13 12 11 11
Wind_Direction
272 269 266 264 262 260 258 255 254 252 249 249 248 249 250 250 251 254 258 259 260 261 264 265 266 264 261 261 261 261 263 265 266 266 265 265 266 266 264 262 260 259 261
275 272 270 267 265 262 259 257 256 253 251 250 250 250 251 253 254 254 257 259 262 263 265 268 268 266 262 259 257 257 259 262 264 264 263 263 263 264 262 260 260 259 259
277 275 273 270 267 265 262 260 259 256 253 252 251 252 253 255 256 256 256 257 261 263 265 267 269 268 267 260 256 254 255 258 260 261 262 263 262 262 260 259 259 260 260
281 278 275 272 270 267 265 264 263 259 256 253 252 251 252 253 254 256 258 259 260 262 264 267 270 271 268 263 257 252 251 252 254 257 258 259 260 259 258 259 260 260 260
286 284 281 275 271 269 266 264 263 262 259 256 255 254 254 253 253 254 256 258 259 260 263 265 268 272 274 269 262 256 252 250 251 251 252 253 256 258 259 259 259 259 258
290 288 285 277 273 271 266 262 261 259 257 256 255 254 254 254 254 253 255 257 259 261 262 263 266 271 273 274 269 264 260 254 250 249 248 249 251 254 257 258 257 257 257
296 293 289 282 277 274 267 262 262 258 255 253 254 254 254 255 255 255 255 256 258 259 260 261 264 267 269 273 271 269 266 262 256 252 248 249 249 251 253 254 256 256 256
313 307 302 292 287 280 272 269 265 260 257 255 255 256 256 256 257 256 255 255 256 258 260 262 264 267 270 270 269 267 263 261 260 256 253 252 250 252 252 252 254 254 256
343 335 327 317 311 301 291 283 274 265 262 260 261 261 261 260 259 257 256 256 257 259 261 263 265 267 268 267 266 266 263 259 258 257 255 255 253 253 252 253 254 256 258
10 11 14 9 355 347 342 332 314 292 279 272 270 268 267 266 263 260 259 260 261 262 263 264 265 266 266 265 263 262 260 257 255 255 255 255 255 253 255 255 256 258 259
31 36 35 33 35 31 32 26 14 1 335 306 286 278 275 272 269 266 264 263 263 264 264 264 265 264 263 262 261 259 257 255 254 253 254 255 255 255 256 257 259 259 259
45 48 45 42 41 39 38 37 33 29 25 21 359 325 301 289 280 275 271 268 266 265 265 265 265 263 262 260 258 257 255 253 252 253 254 255 255 254 256 257 256 258 259
49 50 49 46 47 47 45 44 43 40 40 39 37 35 30 19 1 333 305 282 272 269 268 265 264 263 261 258 256 254 253 251 250 252 253 252 251 251 254 254 255 255 255
54 55 55 54 53 52 52 51 49 48 46 44 42 41 41 36 26 15 359 337 316 293 281 274 267 264 261 257 255 251 250 249 248 249 249 248 246 247 248 250 251 251 251
57 58 57 56 55 53 51 51 50 48 47 46 44 40 36 32 26 19 12 1 348 336 322 308 297 286 278 270 261 254 250 249 245 242 241 241 241 243 243 245 246 245 244
58 57 56 55 53 51 50 48 47 46 44 42 39 36 32 28 23 18 11 4 354 343 332 320 307 298 291 285 278 271 261 255 249 245 243 241 240 241 241 238 239 239 239
57 55 54 53 51 49 47 46 44 43 42 40 38 35 33 30 25 20 15 9 1 354 344 333 317 303 293 287 282 273 266 263 259 252 246 243 242 242 243 240 237 235 233
54 53 53 52 50 48 45 43 41 40 39 38 36 35 34 32 30 27 23 18 11 0 350 341 329 316 307 298 288 280 270 260 255 251 248 244 242 241 241 239 236 234 233
53 52 51 48 46 44 43 41 39 38 38 38 37 37 35 34 33 31 29 25 20 13 4 355 345 333 320 309 296 284 274 264 256 250 245 240 237 235 235 234 234 232 231
49 47 46 44 42 41 40 39 38 37 37 38 38 37 36 35 34 33 31 28 24 19 13 6 360 351 339 325 310 291 275 262 251 244 240 237 233 230 229 229 228 227 228
45 44 43 42 41 40 39 37 37 37 36 36 36 36 36 35 34 33 32 30 27 24 21 17 11 4 356 346 333 314 287 262 247 237 232 229 226 223 222 220 219 219 219
42 42 42 42 42 41 39 37 35 35 34 34 35 34 34 33 33 33 32 31 29 27 26 23 20 15 10 4 357 344 319 276 249 235 225 219 214 211 209 209 209 208 210
38 38 39 40 40 39 37 35 34 34 33 32 33 33 32 32 31 31 31 31 31 30 29 27 26 24 21 18 15 12 5 334 251 221 209 202 198 198 197 196 197 200 204
34 34 35 36 36 35 34 34 34 33 32 31 30 30 30 30 30 30 30 31 32 32 31 31 30 30 30 29 30 32 34 41 69 152 172 176 178 181 181 182 183 184 187
28 29 30 31 31 32 32 31 32 32 30 29 28 27 27 28 29 29 30 30 31 32 32 32 33 35 36 37 40 44 50 58 71 94 126 143 154 161 164 165 166 169 172
22 23 23 22 23 25 26 27 28 28 29 28 27 26 25 26 26 27 28 29 30 32 33 34 35 38 41 44 47 52 58 64 72 84 100 117 130 138 144 149 151 149 149
Height
5846 5845 5845 5845 5845 5846 5847 5848 5850 5852 5854 5855 5857 5858 5859 5861 5862 5862 5863 5864 5865 5866 5867 5867 5868 5868 5869 5870 5872 5873 5874 5876 5877 5878 5879 5880 5881 5882 5882 5884 5885 5886 5887
5835 5833 5832 5832 5832 5833 5834 5835 5838 5840 5843 5845 5847 5849 5851 5853 5854 5856 5857 5857 5858 5859 5859 5860 5860 5861 5861 5863 5864 5866 5867 5869 5870 5872 5873 5874 5876 5875 5876 5877 5878 5880 5881
5824 5822 5820 5819 5819 5820 5821 5823 5825 5828 5831 5834 5837 5840 5842 5844 5846 5848 5849 5850 5850 5851 5852 5853 5853 5854 5854 5855 5856 5858 5860 5861 5863 5865 5866 5867 5868 5869 5870 5871 5872 5873 5874
5812 5810 5808 5807 5807 5808 5809 5811 5813 5816 5819 5822 5826 5829 5832 5836 5838 5839 5840 5842 5843 5844 5845 5846 5846 5847 5847 5848 5849 5850 5852 5854 5855 5857 5859 5860 5861 5862 5864 5864 5865 5866 5867
5802 5799 5797 5796 5796 5797 5798 5800 5802 5805 5808 5811 5815 5818 5822 5825 5828 5830 5831 5833 5834 5836 5838 5839 5840 5840 5841 5842 5843 5843 5845 5846 5848 5849 5850 5852 5853 5854 5856 5857 5859 5860 5861
5793 5791 5789 5787 5788 5788 5788 5790 5792 5794 5797 5801 5804 5808 5812 5815 5818 5820 5822 5824 5826 5828 5830 5832 5833 5834 5835 5835 5835 5836 5837 5838 5839 5841 5842 5844 5845 5847 5848 5850 5851 5853 5854
5787 5785 5782 5781 5781 5781 5781 5782 5784 5786 5788 5792 5795 5798 5802 5805 5808 5810 5813 5815 5817 5819 5821 5823 5825 5826 5827 5828 5828 5829 5830 5830 5831 5832 5834 5835 5837 5839 5840 5842 5843 5845 5847
5784 5782 5780 5778 5777 5777 5777 5778 5779 5780 5782 5785 5788 5790 5793 5796 5799 5801 5804 5806 5809 5811 5813 5815 5816 5818 5819 5820 5821 5821 5821 5822 5823 5824 5825 5827 5829 5830 5832 5834 5835 5837 5839
5783 5781 5779 5777 5776 5776 5775 5775 5776 5776 5778 5780 5782 5784 5786 5788 5791 5793 5796 5798 5800 5802 5804 5806 5807 5808 5809 5810 5811 5812 5812 5814 5815 5816 5817 5819 5820 5822 5824 5825 5827 5829 5830
5784 5782 5780 5778 5776 5776 5775 5774 5774 5774 5775 5776 5777 5778 5780 5782 5784 5786 5788 5790 5792 5793 5795 5796 5797 5798 5799 5800 5801 5802 5803 5805 5806 5807 5809 5810 5812 5813 5815 5817 5818 5820 5822
5787 5784 5782 5780 5778 5777 5776 5775 5774 5773 5773 5773 5774 5774 5775 5776 5778 5779 5780 5782 5783 5785 5786 5786 5787 5788 5789 5790 5791 5792 5794 5795 5797 5798 5800 5802 5804 5805 5806 5808 5810 5811 5813
5790 5788 5785 5783 5781 5780 5778 5777 5776 5775 5774 5773 5773 5772 5773 5773 5774 5774 5775 5775 5776 5777 5778 5778 5779 5779 5780 5781 5781 5783 5784 5786 5788 5789 5791 5793 5795 5796 5798 5800 5801 5803 5804
5795 5792 5790 5787 5785 5783 5782 5780 5779 5777 5776 5775 5774 5773 5772 5772 5772 5772 5772 5772 5772 5772 5772 5772 5773 5773 5773 5773 5774 5775 5777 5778 5780 5782 5784 5785 5787 5789 5790 5792 5794 5795 5797
5799 5797 5795 5792 5790 5788 5786 5784 5782 5780 5779 5778 5776 5775 5774 5773 5772 5771 5771 5770 5769 5769 5769 5769 5769 5768 5768 5768 5769 5770 5771 5772 5774 5775 5777 5779 5780 5782 5784 5786 5787 5789 5791
5805 5802 5800 5797 5795 5793 5791 5788 5786 5784 5782 5781 5779 5778 5776 5774 5773 5772 5770 5769 5768 5767 5767 5766 5765 5765 5764 5764 5764 5765 5766 5767 5768 5769 5771 5773 5775 5777 5779 5781 5782 5785 5787
5810 5808 5805 5803 5801 5798 5796 5793 5791 5788 5786 5784 5782 5780 5778 5776 5774 5772 5770 5769 5768 5766 5765 5764 5763 5762 5761 5761 5760 5760 5761 5761 5763 5764 5766 5768 5770 5772 5774 5776 5778 5781 5783
5816 5813 5811 5808 5806 5803 5801 5798 5795 5793 5790 5787 5785 5782 5779 5777 5775 5773 5771 5769 5767 5765 5763 5761 5760 5758 5757 5756 5756 5756 5756 5757 5758 5759 5761 5763 5765 5767 5770 5772 5774 5777 5780
5821 5819 5816 5814 5811 5808 5806 5803 5800 5797 5794 5791 5788 5785 5782 5779 5776 5774 5771 5769 5767 5764 5762 5759 5756 5754 5753 5751 5750 5750 5750 5750 5752 5753 5755 5757 5760 5762 5765 5768 5770 5773 5775
5826 5824 5821 5819 5816 5813 5810 5807 5804 5801 5798 5794 5791 5788 5785 5782 5779 5775 5772 5770 5767 5763 5760 5757 5754 5751 5749 5747 5745 5744 5743 5744 5745 5747 5749 5751 5754 5757 5760 5763 5765 5768 5771
5831 5828 5825 5823 5820 5817 5814 5811 5808 5805 5802 5798 5795 5792 5788 5785 5781 5778 5774 5771 5767 5764 5760 5756 5752 5749 5745 5743 5740 5738 5738 5738 5739 5741 5743 5746 5749 5752 5755 5758 5761 5764 5767
5835 5832 5829 5827 5824 5821 5818 5815 5812 5809 5806 5802 5799 5795 5792 5788 5784 5781 5777 5773 5769 5765 5760 5756 5752 5747 5743 5740 5737 5734 5733 5733 5734 5736 5738 5741 5744 5747 5750 5754 5757 5760 5763
5838 5836 5833 5830 5828 5825 5822 5819 5816 5813 5810 5806 5803 5799 5795 5792 5788 5784 5780 5776 5771 5767 5762 5757 5752 5747 5742 5738 5734 5731 5729 5729 5730 5731 5734 5736 5739 5743 5746 5750 5753 5757 5760
5841 5839 5836 5834 5831 5828 5825 5822 5819 5816 5813 5810 5806 5803 5799 5795 5791 5787 5783 5779 5774 5770 5765 5759 5754 5748 5743 5738 5733 5730 5728 5726 5727 5728 5730 5733 5736 5740 5744 5747 5751 5754 5758
5844 5842 5839 5836 5834 5831 5828 5826 5823 5819 5816 5813 5810 5806 5803 5799 5795 5791 5786 5782 5778 5773 5768 5762 5757 5751 5745 5740 5735 5731 5728 5726 5725 5726 5728 5731 5734 5738 5742 5746 5749 5753 5756
5846 5844 5841 5839 5836 5834 5831 5828 5825 5822 5819 5816 5813 5809 5806 5802 5798 5794 5790 5786 5781 5776 5772 5766 5761 5755 5749 5743 5738 5734 5731 5729 5727 5727 5729 5731 5735 5738 5742 5746 5749 5752 5756
5847 5845 5843 5840 5838 5836 5833 5830 5828 5825 5822 5819 5816 5812 5809 5805 5801 5797 5793 5789 5785 5780 5775 5771 5765 5760 5755 5749 5745 5740 5737 5734 5733 5732 5733 5735 5737 5740 5744 5747 5750 5753 5756